[[{"header":{"parameterUnit":"m.s-1","parameterCategory":1,"la1":30.2992,"la2":30.254,"lo1":-89.0895,"lo2":-89.0443,"dy":0.0025,"dx":0.0025,"nx":19,"ny":19,"refTime":"2026-03-30T09:00:00:Z","depth":0,"parameterNumber":2,"parameterNumberName":"U-component_of_WINDS"},"data":[0,0,0,-5.1448,-5.1452,-5.1646,-5.1646,-5.1899,-5.1902,0,0,0,0,0,0,0,0,0,0,0,-5.1394,-5.1396,-5.1448,-5.1453,-5.1646,-5.1646,-5.1899,-5.1902,0,0,0,0,0,0,0,0,0,0,0,-5.1394,-5.1396,-5.1398,-5.1453,-5.1645,-5.1647,-5.1898,-5.175,0,0,0,0,0,0,0,0,0,0,-5.1561,-5.1516,-5.1395,-5.1398,-5.1454,-5.1645,-5.1647,-5.1743,-5.176,-5.1814,0,-5.1865,0,-5.1887,-5.1919,-5.192,0,0,0,-5.1449,-5.1502,-5.1551,-5.1399,-5.1456,-5.1645,-5.1558,-5.1752,-5.1771,-5.1836,-5.1868,-5.1877,-5.1892,-5.1921,-5.1922,-5.2251,-5.2252,0,0,-5.1439,-5.1431,-5.1538,-5.1563,-5.1535,-5.1551,-5.1564,-5.1763,-5.1797,-5.1869,-5.1883,-5.1896,-5.1922,-5.1924,-5.2249,-5.2251,0,0,0,-5.141,-5.1424,-5.1468,-5.1553,-5.1588,-5.1557,-5.1571,-5.1788,-5.1803,-5.1886,-5.1899,-5.1924,-5.1927,-5.2247,-5.225,-5.2324,0,0,0,-5.1404,-5.1407,-5.1463,-5.146,-5.1584,-5.1691,-5.1592,-5.179,-5.1812,-5.1897,-5.1924,-5.193,-5.2245,-5.2249,-5.2318,-5.2359,0,0,0,-5.1381,-5.1404,-5.1434,-5.1459,-5.1542,-5.1687,-5.1714,-5.1795,-5.1821,-5.192,-5.193,-5.2244,-5.2248,-5.2313,-5.2351,-5.2442,0,0,0,-5.1353,-5.1497,-5.1435,-5.1601,-5.1541,-5.1733,-5.1713,-5.1856,-5.1951,-5.1925,-5.2246,-5.2249,-5.2311,-5.2345,-5.2437,-5.2516,-5.2549,0,0,-5.153,-5.1518,-5.1616,-5.1566,-5.1768,-5.1704,-5.1917,-5.201,-5.2027,-5.2175,-5.2183,-5.232,-5.235,-5.2441,-5.2743,-5.2769,0,0,0,-5.1669,-5.1739,-5.1795,-5.1885,-5.1961,-5.2029,-5.2092,-5.2127,-5.2253,-5.2102,-5.238,-5.2398,-5.2452,-5.249,-5.2512,-5.2558,-5.2268,-5.2267,-5.2267,-5.1905,-5.192,-5.2083,-5.2122,-5.221,-5.2275,-5.2347,-5.2405,-5.2394,-5.246,-5.2502,-5.2684,-5.2728,-5.2745,-5.2793,-5.2548,-5.2549,-5.2549,-5.2549,-5.2162,-5.2263,-5.2248,-5.2399,-5.2415,-5.2543,-5.2612,-5.26,-5.2721,-5.2653,-5.2701,-5.2621,-5.2774,-5.2816,-5.2555,-5.2554,-5.2553,-5.2553,-5.2552,-5.2315,-5.2366,-5.2408,-5.2541,-5.2643,-5.2679,-5.2796,-5.2807,-5.2817,-5.2865,-5.291,-5.2909,-5.2907,-5.2887,-5.2888,-5.2888,-5.2889,-5.2889,-5.289,-5.2455,-5.2501,-5.2599,-5.2694,-5.2754,-5.2835,-5.2904,-5.2964,-5.3032,-5.303,-5.303,-5.3011,-5.2787,-5.2729,-5.2899,-5.2898,-5.2896,-5.2895,-5.2895,-5.2705,-5.2651,-5.2802,-5.2862,-5.2976,-5.3076,-5.309,-5.3211,-5.3262,-5.3319,-5.3293,-5.3126,-5.3113,-5.3096,-5.3047,-5.329,-5.329,-5.329,-5.329,-5.2831,-5.2828,-5.2985,-5.3081,-5.3177,-5.3206,-5.3376,-5.3432,-5.3481,-5.3514,-5.3482,-5.342,-5.3401,-5.34,-5.3375,-5.333,-5.3639,-5.364,-5.364,-5.2984,-5.2991,-5.3132,-5.3181,-5.3272,-5.335,-5.351,-5.3621,-5.3666,-5.3654,-5.3539,-5.3525,-5.3425,-5.3392,-5.3372,-5.3334,-5.3251,0,0]},{"header":{"parameterUnit":"m.s-1","parameterCategory":1,"la1":30.2992,"la2":30.254,"lo1":-89.0895,"lo2":-89.0443,"dy":0.0025,"dx":0.0025,"nx":19,"ny":19,"refTime":"2026-03-30T09:00:00:Z","depth":0,"parameterNumber":3,"parameterNumberName":"V-component_of_WINDS"},"data":[0,0,0,2.9783,2.9785,2.99,2.9901,3.0039,3.0041,0,0,0,0,0,0,0,0,0,0,0,2.9743,2.9744,2.9783,2.9785,2.99,2.9901,3.0039,3.0041,0,0,0,0,0,0,0,0,0,0,0,2.9743,2.9744,2.9745,2.9786,2.99,2.9901,3.0039,2.9955,0,0,0,0,0,0,0,0,0,0,2.9845,2.9803,2.9743,2.9745,2.9786,2.99,2.9901,2.9951,2.996,2.9984,0,3.0003,0,3.0024,3.0049,3.005,0,0,0,2.9789,2.9795,2.9831,2.9745,2.9787,2.99,2.985,2.9956,2.9967,2.9996,3.0005,3.001,3.0026,3.005,3.0051,3.0174,3.0174,0,0,2.9783,2.9761,2.9824,2.9838,2.982,2.9846,2.9853,2.9963,2.9971,3.0005,3.0013,3.0028,3.0051,3.0052,3.0173,3.0174,0,0,0,2.9762,2.9756,2.979,2.9832,2.9853,2.9849,2.9857,2.9966,2.9979,3.0015,3.003,3.0052,3.0053,3.0173,3.0174,3.0173,0,0,0,2.9758,2.9744,2.9787,2.9774,2.9851,2.9911,2.9858,2.9972,2.9985,3.0029,3.0052,3.0055,3.0173,3.0173,3.0172,3.0175,0,0,0,2.9737,2.9742,2.9756,2.9773,2.9822,2.991,2.9929,2.9975,2.9994,3.005,3.0055,3.0172,3.0173,3.0171,3.0174,3.0203,0,0,0,2.9708,2.9752,2.9756,2.9811,2.9821,2.9909,2.9929,2.9995,3.0043,3.0052,3.0173,3.0174,3.0171,3.0173,3.0202,3.0223,3.0229,0,0,2.9751,2.9756,2.979,2.9797,2.9879,2.9893,2.9975,3.0039,3.0064,3.0136,3.0139,3.0172,3.0174,3.0202,3.0274,3.0278,0,0,0,2.9796,2.9821,2.9847,2.9893,2.9944,2.9989,3.0043,3.0068,3.0131,3.0096,3.019,3.0192,3.021,3.0221,3.0225,3.0242,3.0178,3.0178,3.0177,2.9823,2.9855,2.9915,2.9961,3.0005,3.0063,3.0102,3.0144,3.0161,3.0183,3.0205,3.0244,3.0256,3.026,3.0277,3.0218,3.0218,3.0218,3.0218,2.9889,2.9929,2.9954,3.0021,3.0054,3.0111,3.0169,3.018,3.0237,3.023,3.0247,3.0236,3.0264,3.0281,3.0219,3.0219,3.0218,3.0218,3.0218,2.9911,2.9935,2.9966,3.0037,3.0089,3.0135,3.019,3.0218,3.0245,3.0262,3.0289,3.0289,3.0293,3.0273,3.0273,3.0273,3.0273,3.0273,3.0273,2.9921,2.9955,2.9999,3.0059,3.0094,3.0143,3.0204,3.0239,3.0285,3.0301,3.0301,3.0317,3.0261,3.0247,3.0276,3.0275,3.0275,3.0275,3.0275,2.9976,2.9969,3.0035,3.007,3.0146,3.0196,3.0233,3.0302,3.0335,3.0362,3.0376,3.033,3.0336,3.0333,3.0321,3.0368,3.0368,3.0368,3.0368,2.9994,3.0001,3.0078,3.0132,3.0189,3.023,3.0306,3.0354,3.0403,3.0426,3.0424,3.0411,3.0406,3.0416,3.0411,3.04,3.0466,3.0466,3.0466,3.0031,3.0045,3.0104,3.0153,3.0214,3.0267,3.034,3.0403,3.0456,3.0471,3.0445,3.0441,3.042,3.0412,3.0424,3.0415,3.0397,0,0]}]]